Location: Ch�ze
(42.9000°N, 0.0333°W)
Time: 23:48:53
(UTC+00:00)

SJ 16-02 - Pass Details

Date: 24 January 2021
Orbit: 607 x 615 km, 75.0° (Epoch: 24 February)

Event Time Altitude Azimuth Distance (km) Brightness Sun altitude
Rises 18:07:35 0° 207° (SSW) 2,863 5.4 -12.0°
Reaches altitude 10° 18:09:51 10° 211° (SSW) 1,962 4.6 -12.4°
Maximum altitude 18:14:10 58° 291° (WNW) 716 2.0 -13.1°
Drops below altitude 10° 18:18:30 10° 11° (N) 1,971 3.7 -13.9°
Enters shadow 18:20:31 - 15° (NNE) 2,769 4.4 -14.3°
